Regional Weather Roundup
Issued by NWS

Home | Current Version | Previous Version | Text Only | Print | Product List | Glossary Off
Versions: 1 2 3 4 5 6 7 8 9 10 11 12 13 14 15 16 17 18 19 20 21 22 23 24 25 26 27 28 29 30 31 32 33 34 35 36 37 38 39 40 41 42 43 44 45 46 47 48 49 50

000
ASUS43 KFSD 201010
RWRSD

WEATHER ROUNDUP FOR SOUTH DAKOTA
NATIONAL WEATHER SERVICE SIOUX FALLS SD
400 AM CST SAT DEC 20 2014

NOTE: "FAIR" INDICATES FEW OR NO CLOUDS BELOW 12,000 FEET WITH NO
SIGNIFICANT WEATHER AND/OR OBSTRUCTIONS TO VISIBILITY.


SDZ001>005-009-010-012>017-201100-
NORTHWEST AND NORTH CENTRAL SOUTH DAKOTA

CITY           SKY/WX    TMP DP  RH WIND       PRES   REMARKS
BUFFALO          N/A     31  23  72 CALM      29.80F
FAITH            N/A     27  21  78 S5        29.89F WCI  22
MOBRIDGE       CLEAR     19  15  84 SE7       29.91S WCI  10
$$

SDZ012>016-024>037-041>051-057-063-072>074-201100-
SOUTHWEST AND SOUTH CENTRAL SOUTH DAKOTA

CITY           SKY/WX    TMP DP  RH WIND       PRES   REMARKS
RAPID CTY ARPT CLEAR     30  18  60 NW6       29.90R WCI  24
PIERRE         FOG       16  12  84 E3        29.95F VSB<1/4
CUSTER         MOCLDY    28  15  58 NW3       29.89S
ELLSWORTH AFB  CLEAR     25  18  75 W7        29.89R WCI  17
PHILIP         CLEAR     20  16  84 W5        29.93S WCI  13
PINE RIDGE     CLEAR     22  16  78 W8        29.94S WCI  12
SPEARFISH      CLOUDY    34  18  51 CALM      29.90S
WINNER         FAIR      23  15  71 S3        29.97S
$$

SDZ004>011-016>023-039-040-201100-
NORTHEAST SOUTH DAKOTA

CITY           SKY/WX    TMP DP  RH WIND       PRES   REMARKS
ABERDEEN       CLOUDY    27  25  92 S9        30.01F FOG     WCI  18
WATERTOWN      CLOUDY    28  27  96 SW10      30.02R FOG     WCI  19
SISSETON         N/A     30  28  92 SW7       30.03S WCI  23
$$

SDZ017-020-022-023-036>040-048>070-201100-
SOUTHEAST SOUTH DAKOTA

CITY           SKY/WX    TMP DP  RH WIND       PRES   REMARKS
SIOUX FALLS    CLOUDY    31  29  92 S7        30.06S WCI  24
HURON          FOG       26  25  96 SE9       30.03F VSB 1/2 WCI  17
CHAMBERLAIN    MOCLDY    11   9  91 E3        29.99F FOG
MITCHELL       FOG       27  26  96 S10       30.04F VSB 1/4 WCI  17
YANKTON        CLOUDY    30  28  93 SW7       30.07S WCI  23
$$

ABBREVIATIONS USED IN REMARKS
   TC - TEMPERATURE IN CELSIUS
  WCI - WIND CHILL INDEX
   HX - HEAT INDEX
  VSB - VISIBILITY




USA.gov is the U.S. government's official web portal to all federal, state and local government web resources and services.